STARLINK-34017 (64339 NORAD) Tracking and Keplerian Element Data

This shows tracking and keplerian element data for the satellite.

Feedback or suggestion? Click here.




ElementValue
Catalog64339
NameSTARLINK-34017
Epoch Orbit2959
Epoch Day354.00375962
Epoch Year2025
RAAN211.7202
Inclination43.0021
Eccentricity0.0001497
Argument of Perigee258.6685
Mean Anonmoly101.3999
Mean Motion15.27584806
Decay Rate0.00012373
L11 64339U 25124Y 25354.00375962 .00012373 00000+0 45834-3 0 9992
L22 64339 43.0021 211.7202 0001497 258.6685 101.3999 15.27584806 29596



Live tracking and technical data element details for STARLINK-34017 (NORAD 64339). STARLINK-34017 can be tracked NOW for your location showing map with azimuth and elevation plus other details from your city location.







IsCatalogInMostPopularTable: catalog: 64339, numindb: 18
Update: records affected: 1



GetName: 64339 STARLINK-34017

Hit Count: updated at: Tue, 21 Apr 2026 20:48:40 GMT